Wind_Speed
18 15 13 8 4 2 3 7 11 15 18 21 23 24 27 31 33 25 19 16 17 16 14 11 9 9 8 6 8 6 13 9 10 14 16 16 17 19 20 23 27 28 26 22 19
21 18 15 11 7 4 1 3 6 11 15 18 20 22 23 27 30 31 26 20 17 15 15 14 13 11 8 7 8 9 7 9 12 15 13 16 18 20 21 23 25 26 26 25 22
24 20 17 14 11 8 4 1 3 6 10 14 19 19 21 22 25 28 30 25 21 19 17 16 14 14 16 14 13 14 14 13 12 14 14 14 16 17 18 18 19 22 25 25 23
28 24 20 17 14 12 9 6 4 4 6 9 14 17 18 21 20 23 26 27 25 21 20 20 19 17 15 16 18 19 18 17 18 16 16 17 16 16 15 15 15 18 22 23 23
32 28 24 22 18 15 13 11 8 7 5 6 10 14 16 18 20 21 21 23 26 26 22 20 19 18 16 17 18 19 20 20 18 18 16 16 18 17 15 13 12 14 15 18 20
36 32 29 26 23 19 17 15 12 10 8 6 8 10 14 15 18 21 19 20 24 26 26 22 21 21 22 22 22 21 22 23 22 19 17 17 16 17 16 14 11 11 11 12 14
39 35 33 30 27 23 21 19 16 13 12 10 8 10 11 14 16 19 22 17 20 25 28 29 26 24 25 25 24 24 25 25 22 20 18 16 18 16 19 17 15 10 12 10 8
43 40 37 34 31 27 25 23 20 18 15 14 12 10 11 13 16 18 20 19 17 20 24 27 29 26 25 26 26 25 26 25 22 19 21 17 17 15 18 19 18 16 12 13 12
47 44 41 38 35 32 29 27 24 22 19 16 15 15 13 13 15 18 19 21 18 18 20 25 28 31 29 28 27 28 27 26 23 22 22 21 16 13 14 18 20 19 17 16 12
51 49 46 43 40 37 34 31 28 26 23 21 18 17 17 15 17 18 20 21 21 20 21 23 29 33 35 31 28 27 28 27 24 22 24 24 20 16 14 14 19 19 17 17 16
56 53 50 47 43 41 38 35 32 30 28 25 24 21 20 19 20 19 21 21 23 22 23 24 27 33 37 36 30 25 26 30 27 25 24 22 21 19 18 17 16 18 16 16 19
60 58 54 51 48 45 41 39 37 34 32 30 28 26 25 23 24 23 22 23 24 25 25 27 28 33 37 39 34 28 28 30 29 26 24 21 17 19 19 21 18 17 16 18 21
62 60 57 56 52 49 46 44 42 39 37 34 32 30 30 27 27 27 27 25 26 28 29 28 29 33 36 40 38 32 30 32 31 27 25 20 17 18 19 20 18 17 18 19 19
64 62 61 59 57 54 51 48 46 44 41 39 37 35 33 33 31 31 30 28 29 31 31 31 32 34 38 41 42 36 33 34 34 31 28 18 14 15 18 20 18 19 19 17 17
64 62 63 62 60 58 55 53 51 49 46 43 42 40 36 37 33 36 33 32 31 32 34 33 35 36 38 40 41 38 34 35 36 33 30 20 12 11 14 18 19 19 17 16 17
69 65 63 63 62 61 57 57 54 52 50 47 44 42 41 39 36 37 36 35 33 35 36 36 36 37 38 42 42 38 35 34 33 32 29 21 14 11 12 15 16 17 17 18 19
74 71 67 67 64 62 59 59 57 55 55 50 47 45 43 42 42 40 40 38 36 38 38 38 38 39 39 44 43 39 35 33 34 34 28 20 17 13 10 12 14 15 17 16 19
78 77 75 71 68 66 64 63 60 62 57 51 49 48 48 47 47 43 43 41 40 41 42 40 40 41 44 45 44 41 39 35 35 33 29 21 20 19 14 11 14 18 22 24 25
82 81 81 75 74 70 67 63 65 65 60 58 55 53 49 49 48 46 45 45 45 43 44 43 43 43 46 47 45 43 43 40 37 34 31 27 25 24 21 17 15 17 20 25 31
86 86 85 77 78 76 71 67 71 69 64 61 58 58 57 55 53 53 50 49 47 46 45 47 47 47 48 49 49 48 47 45 42 37 34 32 31 29 27 24 23 24 26 29 34
91 89 86 83 83 79 74 70 76 74 70 66 63 61 60 58 56 54 52 52 49 46 48 50 51 50 51 49 50 50 50 48 45 42 39 37 34 31 30 29 28 28 29 31 34
98 95 92 87 85 80 76 77 81 79 74 70 67 65 63 62 61 56 53 54 50 51 51 52 58 55 53 52 54 53 52 49 48 46 43 41 41 37 33 32 31 31 30 32 34
103 102 97 93 87 83 83 83 85 83 77 75 71 68 65 65 63 57 56 56 55 54 54 54 54 61 61 59 58 56 53 51 49 49 49 47 44 44 42 40 38 37 36 36 38
103 103 101 97 94 91 87 84 84 86 83 78 75 71 68 67 67 64 62 58 57 58 56 56 57 61 66 66 64 61 57 53 51 49 48 48 47 48 47 46 44 44 44 45 45
108 104 100 98 99 96 93 91 89 90 85 77 75 73 72 72 72 68 66 65 64 62 61 62 62 64 66 69 68 67 62 57 54 52 48 47 50 51 51 51 51 51 52 52 52
116 110 103 100 99 98 98 96 93 94 89 83 80 80 77 75 73 72 70 69 69 69 68 66 67 68 67 70 69 67 65 63 61 56 54 53 50 53 54 53 55 56 58 59 61
116 116 111 106 101 97 96 96 98 99 98 91 86 82 80 82 81 78 75 75 74 73 71 70 70 70 69 69 65 63 65 63 65 62 58 58 59 57 57 57 56 56 58 61 63
Wind_Direction
202 200 204 211 210 148 74 51 38 32 36 39 37 39 45 44 46 50 51 54 63 63 61 67 76 65 49 33 357 15 52 27 352 329 340 359 1 9 16 20 26 24 16 18 14
209 211 216 215 224 221 162 48 43 29 25 33 35 35 39 42 43 47 47 43 42 50 56 51 39 37 33 5 6 353 20 1 350 317 334 340 352 359 11 16 19 22 22 17 22
213 214 222 221 226 234 238 281 23 23 22 20 27 28 31 39 41 40 42 41 36 32 33 34 37 30 21 12 13 10 4 359 344 337 342 347 355 1 14 16 15 18 25 21 23
217 218 221 225 229 241 251 260 288 330 358 12 17 25 23 29 35 37 36 37 34 27 23 21 22 22 24 8 4 359 359 350 341 348 347 345 347 348 354 2 9 17 18 23 23
219 220 225 228 232 240 250 263 270 289 321 344 2 14 19 18 22 25 26 28 31 27 19 12 9 10 2 357 1 359 354 345 340 342 346 344 342 344 342 344 351 4 7 18 31
222 223 225 229 231 236 244 254 266 273 286 307 329 352 7 3 8 13 15 16 19 21 19 9 2 358 357 353 351 355 352 347 341 338 339 336 334 337 334 333 344 338 333 0 14
223 226 227 231 232 236 241 247 255 263 271 283 295 321 344 351 356 1 6 7 11 17 15 12 4 1 354 352 349 348 351 349 343 331 332 332 330 335 323 324 323 323 320 320 336
224 227 229 231 234 237 240 246 253 259 262 267 279 290 314 329 342 347 352 356 357 5 10 11 10 2 352 350 348 346 345 351 346 334 328 328 324 328 316 315 315 314 316 307 306
226 228 229 232 234 238 242 245 250 258 263 263 268 278 290 305 323 337 341 348 347 349 354 359 1 0 358 350 346 345 346 345 348 342 329 323 316 319 308 302 303 305 306 304 306
228 229 231 232 235 239 242 245 249 252 257 262 264 270 282 286 304 322 330 335 340 340 339 345 348 350 355 351 344 347 344 342 346 337 328 327 316 306 298 285 291 293 295 295 300
230 230 231 234 235 238 242 247 253 252 252 258 262 265 272 280 288 303 317 320 330 334 333 333 341 343 352 348 347 344 342 339 344 334 324 321 307 301 294 282 281 284 292 294 287
230 231 233 233 235 237 241 246 248 251 253 257 261 265 268 274 281 289 302 311 316 326 323 333 333 335 345 344 348 342 342 342 341 340 328 318 303 290 282 282 282 282 282 276 272
230 230 232 234 235 238 240 245 247 251 253 254 257 261 266 270 272 280 294 301 307 319 320 324 326 326 337 339 345 343 343 343 340 336 332 318 298 294 288 284 284 276 275 275 269
231 232 232 234 235 237 241 244 246 248 252 255 258 258 264 265 271 278 286 292 300 312 315 315 321 319 329 337 341 339 342 343 341 341 337 331 306 295 285 289 286 278 272 276 280
230 232 233 235 237 239 240 242 244 246 249 252 255 259 259 263 268 273 283 285 292 305 308 311 315 314 326 331 334 337 339 341 344 342 341 333 330 310 295 291 284 286 289 295 288
231 232 233 235 236 238 239 242 244 246 249 251 254 256 261 266 266 270 280 281 287 298 303 301 310 309 321 324 329 334 334 338 342 341 340 339 336 324 305 300 299 298 303 298 295
232 233 234 235 236 237 238 241 243 245 247 249 253 255 259 261 263 268 274 276 284 293 297 295 304 306 316 320 324 331 329 335 338 340 340 331 331 331 308 293 292 287 287 281 282
231 233 234 234 236 237 239 241 244 245 247 249 251 253 256 258 261 266 270 274 282 288 290 291 297 304 312 316 317 326 325 330 332 334 336 324 314 313 311 304 283 275 281 288 288
231 233 234 234 236 237 238 240 243 244 246 248 248 250 252 256 262 265 269 273 278 283 284 287 294 297 307 309 313 320 321 324 326 328 332 327 310 309 305 298 290 287 290 292 293
231 232 234 235 236 238 239 240 243 245 245 246 248 251 255 258 263 267 271 268 272 279 281 287 291 295 301 304 310 313 315 320 320 321 327 326 317 311 306 302 299 295 291 288 287
231 232 234 233 236 238 240 239 242 243 243 245 248 251 255 259 261 265 264 266 271 271 278 286 288 292 295 299 303 306 309 314 315 317 318 320 319 310 306 299 295 292 290 285 280
232 232 233 233 236 237 237 237 241 243 244 246 248 251 255 259 260 259 259 266 267 273 279 284 289 290 290 292 296 301 306 308 310 312 311 315 318 314 305 296 292 287 280 277 281
232 233 233 235 235 235 235 236 241 244 245 247 249 250 253 254 255 257 258 259 265 272 277 281 282 286 286 289 292 297 302 303 306 307 307 312 314 311 306 299 294 287 285 285 284
232 233 233 234 235 235 237 238 241 246 247 247 248 249 250 250 252 255 259 261 264 267 273 275 276 278 283 289 292 295 298 300 301 301 301 303 306 309 303 295 288 285 282 283 286
231 232 232 233 235 236 237 239 241 245 245 245 248 251 252 253 256 257 259 260 264 268 270 272 273 275 280 287 290 294 296 298 297 299 297 295 300 303 298 294 290 289 288 290 291
230 232 231 232 234 234 236 238 240 243 246 247 247 249 251 252 254 256 258 260 263 266 269 270 273 276 279 283 288 293 294 297 299 296 295 298 297 293 292 293 292 290 292 293 294
229 231 231 232 233 234 236 237 239 241 243 245 245 247 251 253 256 257 258 260 264 267 270 272 273 275 279 282 287 289 290 292 293 296 296 296 294 291 290 287 286 286 286 286 287
Height
11002 11004 11006 11007 11008 11009 11008 11007 11006 11005 11005 11004 11002 11000 10997 10995 10993 10990 10987 10986 10987 10987 10987 10987 10985 10984 10982 10982 10981 10978 10977 10978 10977 10976 10969 10965 10962 10957 10953 10947 10945 10943 10938 10936 10931
11000 11002 11004 11006 11007 11007 11007 11007 11006 11006 11005 11004 11004 11002 11000 10997 10996 10993 10991 10988 10987 10988 10988 10987 10986 10985 10986 10983 10980 10978 10976 10976 10975 10973 10970 10966 10960 10957 10952 10947 10944 10943 10940 10935 10931
10997 10999 11001 11003 11005 11006 11006 11007 11006 11006 11006 11005 11004 11003 11002 11000 10998 10996 10994 10991 10989 10987 10987 10988 10988 10986 10983 10983 10981 10978 10976 10974 10974 10971 10967 10965 10962 10959 10953 10951 10947 10944 10941 10938 10933
10994 10996 10998 11001 11002 11003 11004 11005 11005 11005 11006 11005 11005 11004 11003 11001 11000 10997 10996 10994 10992 10990 10988 10987 10986 10985 10984 10983 10980 10977 10975 10973 10971 10969 10966 10962 10961 10958 10956 10953 10950 10947 10944 10942 10938
10990 10993 10995 10998 10999 11001 11002 11002 11003 11004 11004 11004 11004 11004 11004 11002 11000 10998 10996 10995 10994 10992 10990 10988 10987 10986 10985 10983 10981 10978 10975 10973 10969 10967 10964 10962 10958 10957 10955 10953 10951 10949 10948 10945 10944
10985 10988 10991 10994 10996 10998 10999 11000 11000 11001 11002 11003 11003 11003 11003 11002 11000 10998 10996 10994 10993 10992 10991 10989 10987 10984 10982 10980 10978 10977 10974 10971 10968 10964 10963 10960 10959 10957 10954 10952 10951 10950 10949 10947 10946
10979 10983 10987 10989 10992 10994 10996 10997 10998 10999 11000 11001 11002 11002 11001 11001 11000 10998 10997 10994 10992 10990 10987 10985 10984 10982 10980 10978 10976 10974 10972 10970 10967 10963 10962 10960 10957 10956 10951 10950 10950 10951 10947 10946 10946
10973 10977 10981 10984 10988 10990 10992 10993 10994 10996 10997 10998 10999 11000 11000 10999 10998 10998 10997 10995 10993 10991 10988 10986 10984 10982 10980 10977 10974 10973 10972 10970 10967 10962 10959 10959 10956 10955 10950 10948 10947 10946 10946 10944 10943
10966 10971 10975 10979 10982 10985 10987 10989 10990 10992 10994 10995 10996 10997 10997 10997 10996 10996 10995 10994 10992 10990 10988 10986 10985 10983 10980 10977 10973 10970 10969 10968 10966 10962 10959 10957 10956 10954 10951 10946 10944 10942 10942 10941 10940
10958 10963 10967 10972 10976 10978 10981 10983 10985 10988 10989 10990 10992 10994 10994 10994 10994 10994 10993 10992 10991 10989 10987 10984 10982 10979 10977 10974 10972 10969 10966 10966 10966 10962 10958 10955 10954 10952 10950 10947 10944 10942 10941 10938 10937
10950 10955 10960 10964 10968 10971 10975 10977 10980 10982 10983 10986 10987 10989 10990 10990 10990 10991 10991 10990 10989 10987 10986 10984 10980 10976 10975 10972 10970 10968 10964 10960 10961 10959 10955 10953 10950 10948 10946 10944 10943 10940 10938 10936 10933
10940 10946 10951 10956 10960 10964 10969 10971 10972 10974 10977 10979 10981 10983 10984 10985 10986 10987 10988 10987 10986 10985 10983 10981 10979 10974 10972 10970 10967 10964 10962 10958 10956 10954 10950 10947 10945 10943 10941 10939 10940 10938 10935 10933 10930
10930 10936 10942 10947 10951 10955 10960 10962 10965 10967 10969 10972 10974 10976 10977 10980 10981 10981 10983 10983 10983 10981 10979 10978 10976 10972 10970 10967 10964 10960 10958 10955 10952 10949 10946 10942 10938 10935 10934 10932 10933 10933 10931 10929 10928
10919 10925 10932 10937 10942 10946 10950 10954 10956 10959 10963 10965 10967 10970 10971 10973 10975 10976 10977 10978 10977 10977 10975 10974 10973 10968 10967 10962 10959 10957 10955 10951 10946 10943 10940 10936 10932 10930 10926 10926 10927 10926 10926 10925 10923
10908 10914 10920 10926 10931 10935 10941 10943 10946 10950 10954 10958 10960 10961 10965 10966 10971 10968 10970 10972 10972 10972 10970 10969 10968 10963 10962 10959 10958 10956 10952 10947 10943 10938 10935 10932 10930 10927 10923 10921 10921 10920 10920 10920 10918
10896 10902 10909 10913 10919 10924 10930 10932 10936 10941 10943 10948 10953 10954 10956 10959 10962 10961 10964 10965 10966 10967 10965 10962 10963 10959 10959 10955 10953 10952 10949 10945 10941 10937 10934 10931 10929 10926 10923 10920 10917 10915 10915 10915 10913
10882 10889 10895 10900 10907 10911 10918 10920 10926 10930 10933 10940 10944 10947 10949 10950 10953 10955 10956 10958 10960 10960 10959 10957 10956 10953 10953 10950 10947 10947 10944 10941 10938 10934 10932 10930 10927 10925 10923 10920 10917 10914 10913 10914 10911
10868 10872 10879 10887 10892 10899 10906 10910 10916 10915 10921 10931 10936 10939 10939 10940 10942 10948 10947 10950 10952 10953 10951 10950 10948 10946 10946 10945 10942 10940 10937 10936 10933 10931 10930 10928 10925 10923 10921 10918 10914 10913 10909 10905 10903
10851 10855 10860 10875 10877 10885 10893 10901 10899 10903 10913 10919 10923 10927 10931 10931 10933 10938 10942 10942 10943 10945 10943 10942 10941 10940 10939 10937 10934 10932 10929 10929 10928 10926 10924 10922 10920 10918 10915 10914 10912 10908 10905 10901 10896
10834 10835 10843 10865 10861 10869 10881 10888 10882 10890 10899 10905 10910 10913 10920 10925 10927 10927 10933 10932 10934 10935 10935 10934 10933 10930 10930 10927 10924 10923 10921 10921 10919 10919 10917 10916 10912 10911 10909 10906 10903 10901 10899 10896 10891
10813 10816 10830 10842 10845 10857 10871 10870 10863 10873 10884 10892 10899 10903 10907 10913 10917 10919 10920 10922 10926 10926 10926 10924 10924 10925 10922 10920 10918 10917 10914 10912 10911 10911 10909 10906 10906 10904 10903 10899 10896 10893 10890 10886 10882
10791 10800 10811 10823 10832 10845 10852 10847 10845 10856 10871 10880 10888 10892 10897 10897 10902 10912 10913 10910 10914 10916 10916 10913 10907 10911 10912 10912 10909 10909 10907 10905 10902 10900 10900 10899 10895 10894 10893 10890 10887 10884 10881 10877 10874
10767 10779 10792 10805 10819 10826 10828 10831 10830 10840 10857 10865 10874 10882 10887 10888 10890 10895 10902 10905 10906 10906 10905 10903 10900 10891 10895 10900 10900 10900 10899 10896 10894 10890 10886 10886 10885 10880 10878 10875 10873 10870 10867 10864 10861
10743 10756 10774 10788 10797 10806 10813 10818 10823 10825 10839 10851 10857 10866 10874 10877 10879 10884 10888 10893 10895 10898 10899 10896 10893 10886 10881 10883 10885 10886 10886 10887 10886 10883 10877 10873 10874 10871 10866 10863 10860 10857 10855 10853 10851
10720 10735 10754 10768 10777 10789 10797 10802 10809 10805 10818 10839 10843 10850 10858 10864 10867 10876 10879 10882 10883 10885 10885 10884 10881 10877 10874 10870 10870 10868 10871 10873 10873 10872 10870 10864 10859 10858 10854 10849 10844 10842 10839 10836 10833
10697 10711 10732 10744 10755 10767 10775 10784 10791 10789 10801 10819 10832 10830 10839 10844 10848 10856 10862 10864 10868 10870 10870 10870 10867 10865 10864 10859 10858 10856 10854 10855 10857 10857 10856 10854 10850 10841 10836 10837 10832 10827 10823 10819 10815
10672 10685 10704 10723 10734 10746 10758 10766 10767 10774 10780 10797 10811 10819 10819 10825 10830 10836 10844 10847 10851 10852 10854 10855 10852 10850 10851 10848 10850 10847 10842 10844 10841 10843 10842 10840 10836 10832 10825 10819 10818 10818 10815 10809 10804